Location: *
(55.6049°S, 142.1985°W)
Time: 08:11:00
(UTC+00:00)

H-2A R/B - Pass Details

Date: 12 May 2021
Orbit: 577 x 655 km, 98.5° (Epoch: 13 June)

Event Time Altitude Azimuth Distance (km) Brightness Sun altitude
Rises 15:32:52 0° 162° (SSE) 2,854 5.5 -14.0°
Reaches altitude 10° 15:35:03 10° 158° (SSE) 1,952 4.7 -13.7°
Maximum altitude 15:39:15 61° 77° (ENE) 693 2.6 -13.1°
Drops below altitude 10° 15:43:28 10° 356° (N) 1,964 4.8 -12.5°
Sets 15:45:41 0° 352° (N) 2,872 5.6 -12.2°
